Back to catalog

COSMOS 2251 DEB

AliveLEO
NORAD 33797·DEBRIS·🇷🇺 Russia

Launched Jun 16, 1993 from Plesetsk Cosmodrome

Loading…

Next Passes (next 24 hours)

TLE

FreshSource: Space-Track

Epoch: Sep 14, 2026, 08:31 UTC

1 33797U 93036AN  26257.35524576  .00001085  00000-0  23201-3 0  9994
2 33797  74.0442 230.6300 0063403 248.3309 170.8096 14.58859624930039

Track COSMOS 2251 DEB in real time with AllMySat

Download on the App Store